This demonstration page uses our WeatherBlox Daily Observations layout. Learn more.

Left ArrowRight Arrow

41.12389, -100.76542

Hourly Observations for May 21, 2022

Temp ( °F °C ) Dew Point ( °F °C ) Humidity (%) Winds ( mph kmh ) Pressure ( in mb ) Visibility ( mi km ) Precip ( " mm )
12:53 am 00:53 Mostly Cloudy 45 7.2 33 0.6 63 63 NNW 3 6 30.09 1019 10 16 0.00 0.00
1:53 am 01:53 Cloudy 43 6.1 34 1.1 71 71 NW 5 7 30.10 1019 10 16 0.00 0.00
2:53 am 02:53 Cloudy 42 5.6 35 1.7 76 76 NW 5 7 30.11 1020 10 16 0.00 0.00
3:53 am 03:53 Cloudy 41 5 35 1.7 79 79 WNW 6 9 30.12 1020 10 16 0.00 0.00
4:53 am 04:53 Cloudy 43 6.1 32 0 65 65 NNW 8 13 30.13 1020 10 16 0.00 0.00
5:53 am 05:53 Cloudy 43 6.1 32 0 65 65 NNW 9 15 30.14 1021 10 16 0.00 0.00
6:53 am 06:53 Cloudy 42 5.6 32 0 68 68 NNW 9 15 30.17 1022 10 16 0.00 0.00
7:53 am 07:53 Cloudy 43 6.1 33 0.6 68 68 NNW 9 15 30.21 1023 10 16 0.00 0.00
8:53 am 08:53 Mostly Cloudy 44 6.7 33 0.6 65 65 NNW 10 17 30.23 1024 10 16 0.00 0.00
9:53 am 09:53 Mostly Sunny 45 7.2 33 0.6 63 63 VRB 7 11 30.25 1025 10 16 0.00 0.00
10:53 am 10:53 Partly Cloudy 48 8.9 31 -0.6 52 52 NNW 13 20 30.26 1025 10 16 0.00 0.00
11:53 am 11:53 Partly Cloudy 50 10 30 -1.1 46 46 NW 8 13 30.26 1025 10 16 0.00 0.00
12:53 pm 12:53 Mostly Cloudy 54 12.2 29 -1.7 38 38 WNW 12 19 30.25 1025 10 16 0.00 0.00
1:53 pm 13:53 Mostly Cloudy 54 12.2 29 -1.7 38 38 WNW 14 22 30.24 1024 10 16 0.00 0.00
2:53 pm 14:53 Mostly Cloudy 55 12.8 29 -1.7 37 37 NW 10 17 30.24 1024 10 16 0.00 0.00
3:53 pm 15:53 Cloudy 55 12.8 28 -2.2 35 35 N 12 19 30.24 1024 10 16 0.00 0.00
4:53 pm 16:53 Mostly Cloudy 58 14.4 29 -1.7 33 33 NW 14 22 30.23 1024 10 16 0.00 0.00
5:53 pm 17:53 Sunny 59 15 27 -2.8 29 29 W 10 17 30.22 1023 10 16 0.00 0.00
6:53 pm 18:53 Mostly Cloudy 56 13.3 26 -3.3 32 32 NNW 10 17 30.22 1023 10 16 0.00 0.00
7:53 pm 19:53 Sunny 56 13.3 25 -3.9 30 30 NNW 9 15 30.23 1024 10 16 0.00 0.00
8:53 pm 20:53 Sunny 50 10 26 -3.3 39 39 Calm 30.26 1025 10 16 0.00 0.00
9:53 pm 21:53 Clear 41 5 27 -2.8 57 57 ENE 3 6 30.30 1026 10 16 0.00 0.00
10:53 pm 22:53 Clear 41 5 23 -5 49 49 Calm 30.32 1027 10 16 0.00 0.00
11:53 pm 23:53 Clear 37 2.8 24 -4.4 59 59 Calm 30.35 1028 10 16 0.00 0.00

Powered by AerisWeather